Location: ????????
(55.6189°N, 38.3031°E)
Time: 20:48:03
(UTC+00:00)

ADEOS - Pass Details

Date: 15 November 2019
Orbit: 792 x 794 km, 98.8° (Epoch: 14 December)

Event Time Altitude Azimuth Distance (km) Brightness Sun altitude
Rises 02:26:06 0° 14° (NNE) 3,312 6.9 -21.4°
Reaches altitude 10° 02:28:30 10° 8° (N) 2,378 6.1 -21.1°
Maximum altitude 02:33:28 45° 298° (WNW) 1,083 3.8 -20.4°
Enters shadow 02:34:19 41° 271° (W) 1,141 3.9 -20.3°
